Weather in La Rioja

Argentina     29°24′47″S   66°51′27″W
temp.,
°C
wind,
m/s
gust,
m/s
humid.,
%
clouds,
%
prec.,
mm/h
press.,
hPa
HPBL,
m
3 march, wed
wed300:00+27sw3351100 0.6 101484
03:00+26wnw3457100 1.3 1015104
06:00+22nw6771100 1.1 1014155
09:00+24sw1263100 2.2 101690
12:00+27sse1147100 0.3 1016657
15:00+31ene233791 0.3 10131716
18:00+32ene33335 0.0 10102154
21:00+27w02493 0.0 101224
4 march, thu
thu400:00+26nw12500 0.1 101424
03:00+25w12540 0.1 101324
06:00+24e11600 0.0 101224
09:00+28ssw11440 0.0 1014167
12:00+32ene22340 0.0 10141733
15:00+35ese23270 0.0 10112683
18:00+35sse53260 0.0 10091959
21:00+29sw12400 0.0 101024
5 march, fri
fri500:00+29sw23370 0.0 101225
03:00+28sw34370 0.0 101127
06:00+25se34410 0.0 101137
09:00+30sse11330 0.0 1012127
12:00+34ese22250 0.0 10111137
15:00+37e43160 0.0 10083217
18:00+37e43160 0.0 10052701
21:00+30ne23250 0.0 100724
6 march, sat
sat600:00+28nnw23330 0.0 100829
03:00+26nne22390 0.0 100824
06:00+24wsw01480 0.0 100724
09:00+28s33350 0.0 1009281
12:00+33sse32270 0.0 1008779
15:00+38e22170 0.0 10062609
18:00+38ene54150 0.0 10032748
21:00+32ne6102832 0.0 1006182
7 march, sun
sun700:00+29n343793 0.0 100867
03:00+28nw233896 0.0 100838
06:00+25s234353 0.0 100830
09:00+28ssw453726 0.0 1010185
12:00+34sse54260 0.0 1009745
15:00+38e32180 0.0 10072712
18:00+39e33160 0.0 10052509
21:00+32se36240 0.0 100675